LEMUR-2-MARHISYAM

Last updated on Mon Sep 16 2024 00:02:03 GMT+0000 (Coordinated Universal Time)

1 60536U 24149BW 24258.94028786 .00019028 00000+0 18615-2 0 9997 2 60536 97.7407 333.9106 0001369 35.8187 324.3124 14.92361698 4330
UTC large
Height (km)
Speed (km/s)
/
Latitude / Longitude
Inclination (degrees)
Orbital Period (minutes)
Azimuth
Elevation
Range (km)
Doppler Factor

Next 0 passes for location: London (51.5072 / 0.1276)

Sorry there are no passes over London.